South Beach, OR

9:08 PM PDT on August 31, 2016 (GMT -0700)
Newport Municipal

Weather History for KONP - January, 2012

Change the Weather History Date:

Sunday, January 22, 2012

  Actual Average Record
Temperature  
Mean Temperature 44 °F -  
Max Temperature 50 °F 48 °F 60 °F (2005)
Min Temperature 35 °F 40 °F 30 °F (2008)
Degree Days  
Heating Degree Days 22    
Moisture  
Dew Point 39 °F    
Average Humidity 83    
Maximum Humidity 100    
Minimum Humidity 66    
Precipitation  
Precipitation 0.30 in - - ()
Sea Level Pressure  
Sea Level Pressure 29.72 in    
Wind  
Wind Speed 13 mph (South)    
Max Wind Speed 38 mph    
Max Gust Speed 54 mph    
Visibility 7 miles    
Events Rain    
Averages and records for this station are not official NWS values.
T = Trace of Precipitation, MM = Missing Value Source: NWS Daily Summary

Daily Weather History Graph

Daily Weather History Graph

Search for Another Location

Airport or City:

Trip Planner

Search our weather history database for the weather conditions in past years. The results will help you decide how hot, cold, wet, or windy it might be!

Date:

Astronomy

Jan. 22, 2012 Rise Set
Actual Time 7:45 AM PST 5:10 PM PST
Civil Twilight 7:13 AM PST 5:42 PM PST
Nautical Twilight 6:37 AM PST 6:18 PM PST
Astronomical Twilight 6:02 AM PST 6:53 PM PST
Moon 7:05 AM PST (1/22) 5:00 PM PST (1/22)
Length of Visible Light 10h 29m
Length of Day
9h 25m
Waning Crescent, 0% of the Moon is Illuminated
Jan 22
Waning Crescent
Jan 22
New
Jan 30
First Quarter
Feb 7
Full
Feb 14
Last Quarter

Hourly Weather History & Observations

Time (PST) Temp. Windchill Dew Point Humidity Pressure Visibility Wind Dir Wind Speed Gust Speed Precip Events Conditions
12:15 AM 41.0 °F 36.4 °F 37.4 °F 87% 29.93 in 10.0 mi SE 6.9 mph - N/A   Overcast
12:35 AM 41.0 °F 35.8 °F 37.4 °F 87% 29.92 in 10.0 mi SSE 8.1 mph - N/A   Overcast
12:55 AM 42.8 °F 37.0 °F 37.4 °F 81% 29.90 in 10.0 mi SSE 10.4 mph - N/A   Overcast
1:15 AM 42.8 °F 38.0 °F 37.4 °F 81% 29.91 in 10.0 mi SSE 8.1 mph - N/A   Scattered Clouds
1:35 AM 42.8 °F 38.0 °F 37.4 °F 81% 29.89 in 10.0 mi SE 8.1 mph - N/A   Scattered Clouds
1:55 AM 42.8 °F 37.5 °F 37.4 °F 81% 29.88 in 10.0 mi SE 9.2 mph - N/A   Mostly Cloudy
2:15 AM 42.8 °F 36.6 °F 35.6 °F 76% 29.88 in 10.0 mi SSE 11.5 mph 16.1 mph N/A   Overcast
2:35 AM 42.8 °F 36.2 °F 35.6 °F 76% 29.87 in 10.0 mi SSE 12.7 mph 17.3 mph N/A   Overcast
2:55 AM 42.8 °F 36.6 °F 35.6 °F 76% 29.85 in 10.0 mi SSE 11.5 mph 19.6 mph N/A   Mostly Cloudy
3:15 AM 42.8 °F 37.0 °F 35.6 °F 76% 29.85 in 10.0 mi SSE 10.4 mph 17.3 mph N/A   Overcast
3:35 AM 42.8 °F 37.0 °F 35.6 °F 76% 29.83 in 10.0 mi SSE 10.4 mph 16.1 mph N/A   Overcast
3:55 AM 42.8 °F 37.0 °F 35.6 °F 76% 29.82 in 10.0 mi SE 10.4 mph 17.3 mph N/A   Overcast
4:15 AM 42.8 °F 38.0 °F 33.8 °F 70% 29.80 in 10.0 mi SE 8.1 mph 17.3 mph N/A   Overcast
4:55 AM 42.8 °F 37.0 °F 33.8 °F 70% 29.75 in 10.0 mi SE 10.4 mph 21.9 mph N/A   Overcast
5:15 AM 42.8 °F 36.6 °F 33.8 °F 70% 29.74 in 10.0 mi SSE 11.5 mph 20.7 mph N/A   Overcast
5:35 AM 42.8 °F 35.1 °F 33.8 °F 70% 29.71 in 10.0 mi SE 16.1 mph 23.0 mph N/A Rain Light Rain
6:15 AM 42.8 °F 37.0 °F 33.8 °F 70% 29.67 in 10.0 mi SE 10.4 mph 18.4 mph N/A   Overcast
6:35 AM 44.6 °F 38.4 °F 33.8 °F 66% 29.64 in 10.0 mi SE 12.7 mph 20.7 mph N/A   Overcast
6:55 AM 44.6 °F 39.2 °F 33.8 °F 66% 29.62 in 10.0 mi ESE 10.4 mph 20.7 mph N/A   Light Drizzle
7:15 AM 44.6 °F 38.1 °F 33.8 °F 66% 29.61 in 10.0 mi SSE 13.8 mph 29.9 mph N/A   Drizzle
7:35 AM 42.8 °F 36.6 °F 35.6 °F 76% 29.59 in 10.0 mi SSE 11.5 mph 26.5 mph 0.01 in Rain Light Rain
7:55 AM 41.0 °F 33.5 °F 35.6 °F 81% 29.57 in 10.0 mi SE 13.8 mph 21.9 mph 0.02 in Rain Light Rain
8:15 AM 42.8 °F 34.8 °F 37.4 °F 81% 29.57 in 10.0 mi SSE 17.3 mph 32.2 mph 0.01 in Rain Light Rain
8:35 AM 42.8 °F 34.8 °F 37.4 °F 81% 29.56 in 10.0 mi SSE 17.3 mph 25.3 mph 0.03 in Rain Light Rain
8:55 AM 42.8 °F 34.5 °F 37.4 °F 81% 29.56 in 10.0 mi SSE 18.4 mph 27.6 mph 0.04 in Rain Light Rain
9:15 AM 42.8 °F 35.1 °F 39.2 °F 87% 29.55 in 10.0 mi SSE 16.1 mph 26.5 mph N/A Rain Rain
9:35 AM 42.8 °F 36.2 °F 41.0 °F 93% 29.55 in 7.0 mi SSE 12.7 mph 23.0 mph 0.01 in Rain Light Rain
9:55 AM 44.6 °F 38.1 °F 41.0 °F 87% 29.55 in 7.0 mi SSE 13.8 mph 27.6 mph 0.01 in Rain Rain
10:15 AM 44.6 °F 36.4 °F 41.0 °F 87% 29.57 in 5.0 mi South 20.7 mph 28.8 mph 0.03 in Rain Rain
10:35 AM 46.4 °F 37.5 °F 44.6 °F 93% 29.57 in 5.0 mi South 27.6 mph 40.3 mph 0.05 in Rain Light Rain
10:55 AM 48.2 °F - 44.6 °F 87% 29.58 in 5.0 mi South 35.7 mph 44.9 mph 0.05 in   Overcast
11:15 AM 48.2 °F - 44.6 °F 87% 29.59 in 4.0 mi SSW 38.0 mph 48.3 mph N/A   Overcast
11:35 AM 50.0 °F - 44.6 °F 82% 29.58 in 4.0 mi South 36.8 mph 54.1 mph N/A   Overcast
11:55 AM 48.2 °F - 44.6 °F 87% 29.58 in 3.0 mi South 35.7 mph 43.7 mph N/A   Overcast
12:15 PM 48.2 °F - 44.6 °F 87% 29.58 in 4.0 mi South 38.0 mph 51.8 mph N/A   Overcast
12:35 PM 48.2 °F - 44.6 °F 87% 29.58 in 3.0 mi South 34.5 mph 54.1 mph N/A Rain Light Rain
1:15 PM 46.4 °F 36.7 °F 46.4 °F 100% 29.59 in 1.5 mi South 33.4 mph 41.4 mph 0.04 in Rain Light Rain
1:35 PM 46.4 °F 37.4 °F 44.6 °F 93% 29.56 in 1.2 mi SSW 28.8 mph 40.3 mph 0.10 in Rain Rain
1:55 PM 44.6 °F 36.4 °F 44.6 °F 100% 29.63 in 2.0 mi SSW 20.7 mph 33.4 mph 0.14 in Rain Rain
2:15 PM 46.4 °F 38.7 °F 44.6 °F 93% 29.64 in 1.8 mi SSW 20.7 mph 25.3 mph 0.03 in Rain Rain
2:35 PM 46.4 °F 40.1 °F 44.6 °F 93% 29.66 in 2.0 mi SSW 15.0 mph - 0.04 in Rain Light Rain
2:55 PM 46.4 °F 40.4 °F 46.4 °F 100% 29.67 in 3.0 mi SSW 13.8 mph 20.7 mph 0.04 in   Overcast
3:15 PM 48.2 °F - 44.6 °F 87% 29.69 in 3.0 mi SSW 12.7 mph - N/A   Overcast
3:35 PM 48.2 °F - 44.6 °F 87% 29.70 in 4.0 mi SW 12.7 mph 20.7 mph N/A   Overcast
4:15 PM 48.2 °F - 42.8 °F 82% 29.72 in 3.0 mi WSW 9.2 mph - N/A   Haze
4:35 PM 48.2 °F - 42.8 °F 82% 29.73 in 4.0 mi WSW 8.1 mph - N/A   Haze
4:55 PM 46.4 °F 44.3 °F 42.8 °F 87% 29.74 in 4.0 mi WSW 4.6 mph - N/A   Haze
5:15 PM 46.4 °F 41.1 °F 42.8 °F 87% 29.75 in 3.0 mi West 11.5 mph 17.3 mph N/A   Haze
5:35 PM 46.4 °F 44.3 °F 42.8 °F 87% 29.76 in 4.0 mi WSW 4.6 mph - N/A Rain Light Rain
5:55 PM 46.4 °F 45.2 °F 42.8 °F 87% 29.77 in 5.0 mi WSW 3.5 mph - N/A   Overcast
6:15 PM 46.4 °F 45.2 °F 41.0 °F 81% 29.77 in 5.0 mi WSW 3.5 mph - N/A   Haze
6:35 PM 46.4 °F 43.5 °F 42.8 °F 87% 29.77 in 5.0 mi WSW 5.8 mph - N/A   Scattered Clouds
6:55 PM 46.4 °F 42.9 °F 42.8 °F 87% 29.78 in 4.0 mi SW 6.9 mph - N/A   Mostly Cloudy
7:15 PM 46.4 °F 42.4 °F 41.0 °F 81% 29.79 in 5.0 mi West 8.1 mph - N/A   Haze
7:35 PM 46.4 °F 43.5 °F 39.2 °F 76% 29.80 in 5.0 mi West 5.8 mph - N/A   Haze
7:55 PM 44.6 °F 40.7 °F 37.4 °F 76% 29.81 in 5.0 mi WNW 6.9 mph - N/A   Haze
8:15 PM 44.6 °F 40.7 °F 37.4 °F 76% 29.81 in 5.0 mi WNW 6.9 mph - N/A   Haze
8:35 PM 44.6 °F 42.2 °F 37.4 °F 76% 29.82 in 5.0 mi WNW 4.6 mph - N/A   Haze
9:15 PM 37.4 °F - 35.6 °F 93% 29.84 in 5.0 mi Calm Calm - N/A   Clear
9:35 PM 37.4 °F - 35.6 °F 93% 29.85 in 4.0 mi Calm Calm - N/A   Clear
10:15 PM 35.6 °F - 35.6 °F 100% 29.86 in 4.0 mi Calm Calm - N/A   Mostly Cloudy
10:35 PM 35.6 °F 32.8 °F 35.6 °F 100% 29.86 in 5.0 mi East 3.5 mph - N/A   Mostly Cloudy
10:55 PM 37.4 °F 34.9 °F 37.4 °F 100% 29.87 in 5.0 mi East 3.5 mph - N/A   Mostly Cloudy
11:15 PM 35.6 °F 31.7 °F 35.6 °F 100% 29.87 in 7.0 mi East 4.6 mph - N/A   Scattered Clouds
11:35 PM 35.6 °F 32.8 °F 35.6 °F 100% 29.88 in 7.0 mi East 3.5 mph - N/A   Scattered Clouds
11:55 PM 37.4 °F 32.8 °F 35.6 °F 93% 29.88 in 7.0 mi East 5.8 mph - N/A   Clear